www.pogodaiklimat.ru

Архив погоды во Франкфурте-на-Майне (Германия)

Время
(UTC), дата
04 13.10
05 13.10
06 13.10
07 13.10
08 13.10
09 13.10
10 13.10
11 13.10
12 13.10
13 13.10
14 13.10
15 13.10
16 13.10
17 13.10
18 13.10
19 13.10
20 13.10
21 13.10
22 13.10
23 13.10
00 14.10
01 14.10
02 14.10
03 14.10
04 14.10
05 14.10
06 14.10
07 14.10
08 14.10
09 14.10
10 14.10
11 14.10
12 14.10
13 14.10
14 14.10
15 14.10
16 14.10
17 14.10
18 14.10
19 14.10
20 14.10
21 14.10
22 14.10
23 14.10
00 15.10
01 15.10
02 15.10
03 15.10
04 15.10
05 15.10
06 15.10
07 15.10
08 15.10
09 15.10
10 15.10
11 15.10
12 15.10
13 15.10
14 15.10
15 15.10
16 15.10
17 15.10
18 15.10
19 15.10
20 15.10
21 15.10
22 15.10
23 15.10
00 16.10
01 16.10
02 16.10
03 16.10
04 16.10
05 16.10
06 16.10
07 16.10
08 16.10
09 16.10
10 16.10
11 16.10
12 16.10
13 16.10
14 16.10
15 16.10
16 16.10
17 16.10
18 16.10
19 16.10
20 16.10
21 16.10
22 16.10
23 16.10
00 17.10
01 17.10
02 17.10
03 17.10
04 17.10
05 17.10
06 17.10
07 17.10
08 17.10
09 17.10
10 17.10
11 17.10
12 17.10
13 17.10
14 17.10
15 17.10
16 17.10
17 17.10
18 17.10
19 17.10
20 17.10
21 17.10
22 17.10
23 17.10
00 18.10
01 18.10
02 18.10
03 18.10
04 18.10
05 18.10
06 18.10
07 18.10
08 18.10
09 18.10
10 18.10
11 18.10
12 18.10
13 18.10
14 18.10
15 18.10
16 18.10
17 18.10
18 18.10
19 18.10
20 18.10
21 18.10
22 18.10
23 18.10
00 19.10
01 19.10
02 19.10
03 19.10
04 19.10
05 19.10
06 19.10
07 19.10
08 19.10
09 19.10
10 19.10
11 19.10
12 19.10
13 19.10
14 19.10
15 19.10
16 19.10
17 19.10
18 19.10
19 19.10
20 19.10
21 19.10
22 19.10
23 19.10
00 20.10
01 20.10
02 20.10
03 20.10
04 20.10
Ветер
(напр.,м/с)
Видим. Явления Облачность Т
(С)
Тd
(С)
f
(%)
Тe
(С)
Тes
(С)
Комфортность P
(гПа)
Po
(гПа)
Тmin
(С)
Tmax
(С)
R
(мм)
R24
(мм)
S
(см)
ЮВ 2 25 км в посл. час дождь 9/9 540 м
[Sc]
+5.4 +5.2 99 +3 +3 тепло 1023.4 1010.5
ЮЗ 2 15 км слаб. ливневой дождь 9/9 180 м
[Cu Sc]
+5.7 +5.3 97 +3 +3 тепло 1023.8 1010.9
ЮЗ 1 9000 м слаб. ливневой дождь 9/8 100 м
[Cu Sc Ci sp]
+6.2 +5.8 97 +5 +5 по сезону 1024.5 1011.6 +3.7 +9.2 0.5 5.5
ЮЗ 2 12 км в посл. час ливневой дождь 9/9 180 м
[Cu Sc Ci sp]
+7.2 +6.6 96 +5 +5 по сезону 1024.8 1011.9
З 2 18 км 9/9 300 м
[Cu Sc]
+8.6 +7.0 90 +7 +7 тепло 1025.3 1012.5
ЮЗ 2 18 км слаб. ливневой дождь 8/8 300 м
[Cu Sc Ac lent Ci fib]
+9.1 +6.2 82 +7 +8 по сезону 1025.7 1012.9 0.0
З 2 25 км в посл. час ливневой дождь 8/6 360 м
[Cu Sc Ac trans Ci sp]
+10.8 +6.1 73 +10 +11 по сезону 1025.8 1013.1
З 3 35 км 9/9 600 м
[Cu Sc]
+11.5 +5.8 68 +10 +10 тепло 1025.8 1013.1
СЗ 4 35 км в посл. час ливневой дождь 9/9 540 м
[Cu Sc]
+11.0 +5.0 66 +9 +9 прохладно 1025.8 1013.1 0.0
З 3 40 км осадки на расстоянии 5/4 540 м
[Cb cap Ci fib]
+12.6 +4.3 57 +11 +13 по сезону 1025.6 1013.0
СЗ 4 40 км осадки на расстоянии 9/8 600 м
[Cu Sc]
+12.4 +5.3 62 +11 +11 по сезону 1025.7 1013.1
СЗ 4 40 км 8/5 660 м
[Cb cap Ac trans Ci fib]
+12.4 +5.0 61 +11 +11 по сезону 1025.8 1013.2
З 3 45 км осадки на расстоянии 9/8 750 м
[Cb calv]
+12.0 +4.9 62 +11 +11 по сезону 1025.9 1013.2
З 2 45 км 9/8 750 м
[Cu Sc]
+11.0 +6.5 74 +10 +10 по сезону 1026.4 1013.7
З 3 45 км 9/1 1500 м
[Sc Ac As]
+9.4 +6.2 80 +7 +7 прохладно 1026.7 1013.9 +6.1 +13.0
ЮЗ 2 35 км 9/8 750 м
[Sc Ac trans Ci sp]
+9.6 +6.1 79 +8 +8 по сезону 1027.3 1014.5
Ю 2 35 км 9/4 750 м
[Sc Ac As Ci sp]
+8.7 +6.2 84 +7 +7 по сезону 1027.6 1014.8
ЮЗ 3 35 км 9/8 750 м
[Sc Ac As]
+8.2 +6.0 86 +5 +5 прохладно 1027.9 1015.1
ЮЗ 2 35 км 9/3 700 м
[Sc Ac As]
+7.7 +5.8 88 +6 +6 по сезону 1027.9 1015.0
ЮЗ 3 35 км 9/6 700 м
[Sc Ac As]
+7.5 +5.8 89 +5 +5 по сезону 1027.8 1014.9
ЮЗ 2 35 км 9/5 700 м
[Sc Ac As Ci sp]
+6.7 +5.4 91 +4 +4 прохладно 1027.7 1014.8
Ю 2 28 км 9/4 540 м
[Sc Ac As]
+6.4 +5.2 92 +4 +4 по сезону 1027.6 1014.7
Ю 2 23 км 9/8 540 м
[Sc Ac As]
+7.0 +5.7 91 +5 +5 по сезону 1027.3 1014.4
ЮЗ 2 20 км 9/9 540 м
[Sc]
+7.3 +6.0 91 +5 +5 по сезону 1027.2 1014.3
Ю 4 20 км 10/10 540 м
[Sc]
+7.4 +6.0 91 +4 +4 по сезону 1027.1 1014.2
Ю 3 20 км 10/10 660 м
[Sc]
+7.6 +6.1 90 +5 +5 по сезону 1027.0 1014.1
Ю 3 22 км 10/9 660 м
[Sc]
+7.6 +6.1 90 +5 +5 по сезону 1027.0 1014.1 +6.3 +9.9
Ю 3 19 км 10/9 500 м
[Sc]
+7.9 +6.2 89 +5 +5 по сезону 1027.2 1014.3
ЮЗ 4 20 км 10/9 450 м
[Cu Sc]
+8.3 +6.3 87 +5 +5 тепло 1027.0 1014.2
Ю 4 30 км 10/10 360 м
[Cu Sc]
+9.0 +6.5 84 +6 +6 прохладно 1027.2 1014.4
ЮЗ 4-7
{7}
35 км 10/10 360 м
[Cu Sc]
+9.6 +6.7 82 +7 +7 по сезону 1027.1 1014.3
ЮЗ 4-6
{8}
35 км 10/9 450 м
[Cu Sc]
+10.9 +7.0 77 +9 +9 тепло 1026.7 1014.0
Ю 3 30 км 9/9 450 м
[Cu Sc]
+12.0 +7.5 74 +10 +11 по сезону 1026.2 1013.5
Ю 3-6
{7}
35 км 8/6 700 м
[Sc Ac trans]
+13.5 +8.1 70 +12 +13 по сезону 1025.4 1012.8
ЮЗ 4-6
{6}
40 км 8/6 660 м
[Cu Sc Ac trans Ci fib]
+15.0 +8.9 67 +14 +15 тепло 1024.7 1012.2
Ю 3-5
{7}
45 км 8/5 800 м
[Cu Sc Ac cast Ci fib]
+14.7 +8.6 67 +14 +14 тепло 1024.2 1011.7
ЮЗ 2-3
{6}
50 км 8/5 800 м
[Cu Sc Ac As Ci fib]
+14.6 +8.7 68 +14 +14 тепло 1023.9 1011.4
ЮЗ 2-4
{5}
55 км 9/9 900 м
[Cu Sc]
+12.9 +9.6 80 +12 +12 тепло 1023.6 1011.0
Ю 4 50 км 9/9 1230 м
[Sc]
+12.8 +9.0 78 +11 +11 по сезону 1023.5 1010.9 +7.6 +15.5
Ю 4-7
{8}
50 км 9/9 1230 м
[Sc]
+12.4 +8.5 77 +10 +10 по сезону 1023.2 1010.6
Ю 4-7
{7}
40 км 9/9 1230 м
[Sc]
+11.6 +7.9 78 +9 +9 по сезону 1023.0 1010.4
Ю 3-5
{8}
40 км 4/3 1230 м
[Sc Ci fib]
+9.8 +7.2 84 +8 +8 по сезону 1022.8 1010.1
Ю 2-4
{5}
30 км 4/1 1230 м
[Sc Ci fib]
+8.8 +6.9 88 +7 +7 по сезону 1022.3 1009.6
Ю 2-3
{4}
25 км 3/0
[Ci fib]
+8.2 +6.7 90 +6 +6 по сезону 1022.0 1009.2
Ю 2-3
{8}
25 км 5/0
[Ci fib]
+7.6 +6.1 90 +5 +5 по сезону 1021.4 1008.6
ЮЗ 2-3
{3}
25 км 4/0
[Ci fib]
+6.6 +5.7 94 +4 +4 по сезону 1020.9 1008.1
З 3-4
{4}
20 км 4/0
[Ci fib]
+6.8 +5.8 93 +4 +4 по сезону 1020.2 1007.4
З 2-2
{4}
7000 м туман на расстоянии 4/1 90 м
[St Ci fib]
+6.4 +5.5 94 +4 +4 по сезону 1019.9 1007.1
ЮЗ 4-7
{7}
6000 м туман на расстоянии туман 4/1 90 м
[St Ci fib]
+5.6 +4.8 95 +1 +1 прохладно 1019.7 1006.8
ЮЗ 5-6
{7}
6000 м туман на расстоянии туман 9/4 60 м
[St Ac trans Ci fib]
+5.9 +5.1 95 +1 +1 по сезону 1019.1 1006.3
ЮЗ 4 1300 м дымка 10/10 60 м
[St]
+6.3 +5.5 95 +2 +2 прохладно 1019.0 1006.2 +5.0 +12.8 0.0
Ю 3 1200 м в посл. час туман туман 10/10 30 м
[St]
+6.2 +5.5 95 +3 +3 по сезону 1018.8 1006.0
ЮЗ 4 6000 м дымка 10/6 90 м
[St Ac trans Cs]
+6.8 +5.7 93 +3 +3 по сезону 1018.8 1006.0
ЮЗ 4 10 км {туман} 9/4 180 м
[Sc Ac As Cs]
+8.8 +6.5 85 +6 +6 прохладно 1019.0 1006.3
ЮЗ 4 15 км слаб. дождь 9/1 300 м
[Sc Ac As Cs]
+9.6 +6.5 81 +7 +8 по сезону 1019.0 1006.3
ЮЗ 3 20 км в посл. час дождь 9/1 400 м
[Sc Ac As Cs]
+12.1 +7.5 73 +11 +13 тепло 1018.7 1006.1
ЮЗ 4 22 км {дождь, туман} 9/4 500 м
[Cu Sc Ac cast Ci fib]
+14.1 +7.9 66 +13 +14 по сезону 1018.2 1005.7 0.0
ЮЗ 5 28 км в посл. час дождь 9/9 600 м
[Cu Sc]
+14.8 +7.8 63 +13 +14 тепло 1018.0 1005.6
З 2 27 км в посл. час дождь 9/9 720 м
[Cu Sc]
+14.2 +9.3 72 +14 +14 тепло 1018.1 1005.6
СЗ 3 30 км осадки на расстоянии 9/9 600 м
[Cu Sc]
+14.1 +8.4 69 +13 +13 тепло 1018.3 1005.8 0.0
СЗ 2 40 км осадки на расстоянии туман 9/9 600 м
[Cu Sc]
+13.1 +8.7 75 +12 +12 тепло 1018.6 1006.1
СЗ 3 40 км в посл. час дождь туман 9/8 600 м
[Cu Sc Ac As]
+12.2 +8.4 78 +11 +11 тепло 1019.3 1006.7
СЗ 2 45 км {дождь} 8/5 600 м
[Cu Sc Ac As]
+11.6 +8.1 79 +11 +11 по сезону 1019.8 1007.2 +6.1 +15.2 0.0
С 2-3
{4}
50 км 5/5 2000 м
[Sc]
+11.0 +8.1 82 +10 +10 по сезону 1020.3 1007.7
С 2-3
{4}
40 км 3/3 2000 м
[Sc]
+9.9 +7.5 85 +8 +8 по сезону 1021.0 1008.3
С 2-4
{4}
35 км 3/3 2000 м
[Sc]
+8.6 +6.6 87 +7 +7 по сезону 1021.3 1008.6
СВ 1-1
{4}
30 км местами туман поземный 1/1 2000 м
[Sc]
+7.0 +6.0 93 +6 +6 по сезону 1021.7 1008.9
СВ 2-2
{2}
30 км местами туман поземный 1/1 2000 м
[Sc]
+5.7 +4.9 95 +3 +3 по сезону 1022.0 1009.1
СВ 1-2
{4}
30 км местами туман поземный 1/1 2000 м
[Sc]
+5.2 +4.4 95 +4 +4 по сезону 1022.2 1009.3
В 1-2
{2}
25 км местами туман поземный ясно +4.8 +4.1 95 +3 +3 по сезону 1022.2 1009.3
В 1-1
{2}
25 км местами туман поземный ясно +3.3 +2.4 94 +2 +2 по сезону 1022.2 1009.2
СВ 2-3
{3}
18 км местами туман поземный 3/3 30 м
[St]
+3.2 +2.4 94 0 0 холодно 1022.3 1009.3
В 1-2
{3}
20 км 4/4 30 м
[Sc]
+3.2 +2.2 93 +2 +2 по сезону 1022.4 1009.4
СВ 1-2
{2}
8000 м туман на расстоянии 5/5 30 м
[Sc Ci fib]
+3.9 +2.9 93 +2 +2 по сезону 1022.6 1009.6
В 1 3500 м туман на расстоянии 5/4 30 м
[Sc Ac trans Ci fib]
+4.0 +2.8 92 +2 +2 прохладно 1022.8 1009.8 +2.5 +11.7
СВ 2-3
{3}
800 м туман 5/5 60 м
[Sc Ci fib]
+4.9 +3.7 92 +2 +2 по сезону 1023.2 1010.3
СВ 3-4
{5}
7000 м в посл. час туман туман 5/5 120 м
[Sc Ci fib]
+7.1 +5.2 88 +4 +5 тепло 1023.5 1010.7
СВ 3 30 км {туман} 3/3 240 м
[Sc Ci fib]
+8.6 +5.0 78 +6 +8 по сезону 1023.4 1010.6
В 2-3
{5}
30 км 1/1 300 м
[Sc Ci fib]
+10.0 +5.5 74 +9 +13 тепло 1023.2 1010.5
В 2-4
{4}
30 км 1/1 450 м
[Sc]
+11.4 +5.7 68 +10 +15 тепло 1023.0 1010.4
СВ 2-3
{5}
30 км {туман} 1/1 300 м
[Cu Sc]
+12.6 +5.7 63 +12 +16 по сезону 1022.3 1009.7
В 2-4
{4}
35 км 3/3 800 м
[Cu Sc Ci fib]
+13.6 +3.3 50 +13 +16 тепло 1021.7 1009.2
В 2-4
{5}
45 км 3/3 1050 м
[Cu Sc Ac trans Ci fib]
+14.0 +2.6 46 +14 +16 тепло 1021.4 1008.9
ЮВ 2-3
{5}
45 км 4/4 1140 м
[Cu Sc Ac trans Ci fib]
+13.5 +2.3 47 +13 +14 тепло 1021.2 1008.7
В 1-2
{3}
45 км 4/4 1140 м
[Cu Sc Ci fib]
+11.1 +5.6 69 +11 +11 тепло 1021.2 1008.6
В 2-2
{2}
40 км 3/3 1410 м
[Sc Ci fib]
+8.8 +5.2 78 +7 +7 по сезону 1021.4 1008.7
В 2 40 км 5/5 1410 м
[Sc Ci fib]
+7.5 +5.3 86 +5 +5 прохладно 1021.8 1009.0 +3.9 +14.2
В 1-2
{4}
45 км 9/9 1410 м
[Sc]
+9.0 +5.5 79 +8 +8 по сезону 1021.8 1009.1
СВ 1-2
{2}
45 км 8/8 1440 м
[Sc]
+7.5 +5.3 86 +7 +7 по сезону 1021.9 1009.1
СВ 2 40 км 8/4 1110 м
[Cu Sc Ci sp]
+6.7 +4.6 86 +4 +4 прохладно 1021.9 1009.1
СВ 2-2
{3}
40 км 9/9 1110 м
[Cu Sc]
+8.6 +4.2 74 +7 +7 по сезону 1022.0 1009.2
СВ 1-2
{3}
45 км 9/9 1080 м
[Cu Sc]
+8.5 +4.1 74 +8 +8 тепло 1021.6 1008.8
СВ 2 35 км 8/6 1500 м
[Sc Ci fib]
+7.8 +4.4 79 +6 +6 по сезону 1021.7 1008.9
СВ 2-2
{2}
35 км 8/5 1470 м
[Sc Ci fib]
+6.5 +4.2 85 +4 +4 по сезону 1021.7 1008.8
СВ 2-2
{2}
35 км 9/9 1410 м
[Sc]
+6.9 +4.5 85 +5 +5 тепло 1021.4 1008.6
СВ 2-3
{3}
35 км 9/9 1410 м
[Sc]
+7.1 +4.4 83 +5 +5 по сезону 1021.0 1008.2
СВ 2-3
{3}
35 км 9/9 1410 м
[Sc]
+7.2 +4.7 84 +5 +5 по сезону 1021.1 1008.3
СВ 1-2
{2}
28 км 9/9 1410 м
[Sc]
+7.3 +5.0 85 +6 +6 тепло 1021.0 1008.2
В 1 30 км 9/9 1000 м
[Sc]
+7.3 +4.8 84 +6 +6 по сезону 1021.3 1008.5 +5.9 +9.1
В 1-2
{2}
30 км 9/9 300 м
[Sc]
+7.8 +5.4 85 +7 +7 тепло 1021.9 1009.1
В 1-2
{2}
35 км 9/9 300 м
[Sc]
+8.8 +5.8 81 +8 +8 тепло 1022.0 1009.3
СВ 2 35 км 9/8 360 м
[Cu Sc Ci fib]
+10.3 +5.5 72 +9 +10 по сезону 1022.0 1009.3
СВ 2-4
{8}
35 км 9/8 360 м
[Cu Sc Ci fib]
+10.8 +5.5 70 +10 +10 тепло 1022.0 1009.3
СВ 2-4
{4}
40 км 9/9 360 м
[Cu Sc]
+12.4 +5.1 61 +12 +12 тепло 1021.7 1009.1
СВ 3 40 км 8/8 360 м
[Cu Sc]
+13.3 +5.0 57 +12 +13 тепло 1021.3 1008.8
СВ 3-5
{6}
40 км 8/8 1080 м
[Cu Sc Ci fib]
+13.2 +4.3 55 +12 +13 тепло 1021.0 1008.5
В 2-4
{5}
40 км 9/8 1080 м
[Cu Sc Ci fib]
+13.4 +4.4 54 +13 +13 тепло 1020.8 1008.3
В 1 40 км 9/6 1080 м
[Cu Sc Ci fib]
+13.1 +4.5 56 +13 +14 тепло 1020.8 1008.3
В 1-2
{2}
40 км 9/6 1080 м
[Cu Sc Cs]
+12.6 +5.2 61 +13 +13 тепло 1021.2 1008.6
ЮВ 1-1
{2}
40 км 8/5 1500 м
[Sc Ci sp]
+11.7 +5.9 68 +12 +12 тепло 1021.4 1008.8
ЮЗ 2 30 км 9/6 1500 м
[Sc Ci fib]
+10.0 +7.1 82 +9 +9 по сезону 1022.1 1009.4 +7.3 +13.9
ЮЗ 2-3
{4}
15 км 9/9 1500 м
[Sc]
+9.4 +7.1 86 +8 +8 по сезону 1022.5 1009.8
ЮЗ 2-3
{4}
13 км 9/6 1500 м
[Sc Cs]
+8.2 +6.9 92 +6 +6 по сезону 1023.0 1010.2
Ю 1-2
{4}
8000 м 10/1 1500 м
[Sc Cs]
+7.4 +6.4 93 +6 +6 по сезону 1023.4 1010.6
штиль 0-1
{3}
7000 м дымка 10/0
[Cs]
+7.0 +6.0 93 +6 +6 по сезону 1023.7 1010.8
ЮЗ 1-2
{2}
6000 м местами туман поземный туман 10/0
[Ac trans Cs]
+6.1 +5.2 94 +5 +5 тепло 1023.8 1010.9
Ю 1-1
{4}
2000 м дымка 4/4 90 м
[St Ac trans Ci fib]
+5.0 +4.2 95 +4 +4 по сезону 1024.3 1011.3
СВ 1-1
{1}
<100 м туман 1/1 90 м
[St Ci fib]
+4.8 +4.1 95 +3 +3 по сезону 1024.6 1011.6
В 1-2
{2}
100 м туман 4/4 90 м
[St Ci fib]
+4.3 +3.6 95 +3 +3 тепло 1024.6 1011.6
В 1-2
{2}
100 м туман ?/? +4.9 +4.1 95 +3 +3 по сезону 1024.6 1011.6
В 1-1
{2}
100 м туман ?/? +6.3 +5.6 95 +5 +5 тепло 1024.9 1012.0
СВ 1-1
{2}
400 м туман ?/? +6.7 +6.0 95 +6 +6 тепло 1025.4 1012.5
СВ 1 4200 м в посл. час туман 10/10 <50 м
[St]
+7.1 +6.2 94 +6 +6 по сезону 1025.8 1012.9 +3.9 +10.5
СВ 1-1
{2}
5000 м дымка 10/10 90 м
[Sc]
+7.5 +6.6 94 +6 +6 тепло 1026.1 1013.2
Ю 1-3
{3}
4700 м 10/10 360 м +8.0 +6.9 93 +7 +7 тепло 1026.6 1013.8
Ю 2 8000 м 10/10 210 м
[St]
+8.7 +7.4 92 +7 +7 по сезону 1026.7 1013.9
Ю 1-2
{3}
10 км 10/10 210 м
[St]
+9.2 +7.3 88 +9 +9 тепло 1027.0 1014.2
ЮЗ 2-3
{5}
12 км 10/10 210 м
[St]
+9.5 +7.0 84 +8 +8 тепло 1026.9 1014.1
ЮЗ 2 13 км 10/10 240 м
[St]
+10.0 +6.5 79 +9 +9 по сезону 1026.2 1013.5
Ю 1-3
{3}
15 км 10/10 270 м
[Sc]
+10.5 +6.9 78 +10 +10 тепло 1025.9 1013.2
ЮЗ 1-3
{5}
15 км 9/9 270 м
[Sc]
+10.9 +7.1 77 +11 +11 тепло 1025.8 1013.1
ЮЗ 2-3
{5}
16 км 8/4 480 м
[Sc Ci sp]
+11.1 +7.1 76 +10 +10 тепло 1025.3 1012.6
З 1-2
{3}
18 км 9/1 360 м
[Sc Ci sp]
+10.3 +7.8 84 +10 +10 тепло 1024.7 1012.0
СВ 2-4
{4}
15 км 9/1 300 м
[Cu hum Ac trans Ci sp]
+8.9 +6.9 87 +7 +7 тепло 1025.0 1012.2
СВ 2 15 км 9/0
[Ac trans Ci sp]
+8.2 +6.2 87 +6 +6 по сезону 1025.1 1012.3 +7.1 +11.3
В 1-2
{4}
15 км 9/0
[Ac trans Ci sp]
+7.8 +6.4 91 +7 +7 тепло 1025.3 1012.5
В 1-2
{2}
15 км местами туман поземный 9/0
[Ac trans Ci sp]
+6.9 +5.9 93 +6 +6 тепло 1025.4 1012.5
СВ 1-1
{4}
14 км 8/0
[Ac trans Ci sp]
+5.9 +5.0 94 +5 +5 по сезону 1025.5 1012.6
СВ 1-2
{2}
12 км туман на расстоянии туман 6/0
[Ac trans Ci fib]
+5.2 +4.4 95 +4 +4 по сезону 1025.4 1012.4
ЮВ 1-2
{2}
12 км местами туман поземный 8/0
[Ac trans Ci sp]
+4.9 +4.0 94 +3 +3 по сезону 1025.1 1012.1
З 1 11 км местами туман поземный 9/0
[Ac trans Ci sp]
+5.1 +4.2 94 +4 +4 по сезону 1025.2 1012.2
В 1-1
{1}
11 км 9/1 90 м
[St Ac As Ci sp]
+4.9 +3.8 93 +3 +3 по сезону 1025.2 1012.2
Ю 1-2
{2}
11 км 9/1 90 м
[St Ac As Ci sp]
+5.7 +4.8 94 +4 +4 тепло 1024.7 1011.8
ЮВ 1-2
{2}
11 км слаб. дождь 10/4 120 м
[Sc Ac As]
+6.1 +5.0 93 +5 +5 по сезону 1024.1 1011.2 0.0
ЮЗ 2-4
{5}
5000 м слаб. дождь 10/9 60 м
[St As op]
+6.9 +6.0 94 +5 +5 тепло 1024.3 1011.4
ЮЗ 3-5
{5}
4500 м слаб. дождь 10/6 60 м
[Frnb As op]
+6.9 +5.9 93 +4 +4 тепло 1024.3 1011.4
ЮЗ 3 5000 м дождь 10/10 50 м
[St]
+7.1 +6.1 93 +4 +4 по сезону 1023.9 1011.1 +4.5 +8.8 1 1.3
ЮЗ 3-5
{5}
3200 м дождь 10/10 60 м
[St]
+7.4 +6.6 95 +4 +4 тепло 1023.9 1011.1
ЮЗ 4-8
{8}
3500 м дождь 10/10 60 м
[St]
+8.5 +7.6 94 +5 +5 тепло 1023.6 1010.8
ЮЗ 4 7000 м дождь 10/10 60 м
[St]
+9.3 +8.3 93 +6 +6 по сезону 1023.3 1010.6 5
ЮЗ 3-4
{5}
4400 м слаб. морось {дождь} 10/10 90 м
[St]
+9.8 +8.9 94 +7 +7 тепло 1023.2 1010.5
ЮЗ 5-6
{6}
6000 м слаб. морось 10/10 120 м
[St]
+10.8 +9.8 94 +8 +8 тепло 1023.0 1010.3
ЮЗ 4-6
{8}
5000 м слаб. морось {дождь} 10/10 120 м
[St]
+11.4 +10.3 93 +9 +9 тепло 1022.3 1009.7 0.4
ЮЗ 3-4
{6}
8000 м в посл. час морось 10/10 120 м
[Sc]
+12.4 +11.2 92 +11 +11 тепло 1021.6 1009.0
ЮЗ 3-5
{6}
10 км 8/6 120 м
[St Ac lent]
+14.3 +11.8 85 +13 +14 тепло 1021.0 1008.5
ЮЗ 2-3
{6}
10 км {морось} 4/3 120 м
[Sc Ac As]
+13.3 +11.3 88 +13 +13 тепло 1020.8 1008.3 0.0
СЗ 1-1
{3}
10 км 3/1 1500 м
[Sc Ac cast Ci fib]
+13.1 +11.2 88 +13 +13 тепло 1020.2 1007.7
СВ 1-2
{2}
8000 м местами туман поземный 4/1 1500 м
[Sc Ac As Ci fib]
+11.2 +10.3 94 +11 +11 тепло 1020.2 1007.6
ЮЗ 2 6000 м туман на расстоянии 3/1 30 м
[St Ci fib]
+9.9 +9.1 95 +8 +8 тепло 1020.5 1007.8 +7.1 +14.5
З 2-3
{4}
9000 м туман поземный 1/1 30 м
[St Ci fib]
+9.5 +8.9 96 +8 +8 тепло 1020.5 1007.8
ЮЗ 2-3
{3}
9000 м туман поземный 1/1 30 м
[St Ci fib]
+8.7 +8.0 95 +7 +7 тепло 1020.2 1007.5
Ю 2-2
{4}
15 км туман поземный 1/0
[Ci fib]
+9.1 +8.5 96 +7 +7 тепло 1019.9 1007.2
ЮЗ 1-2
{3}
500 м туман 4/4 30 м
[St]
+8.0 +7.3 95 +7 +7 тепло 1019.6 1006.9
ЮЗ 2-2
{2}
700 м туман 4/4 30 м
[St]
+7.6 +7.0 96 +5 +5 тепло 1019.2 1006.4
Ю 2-3
{4}
20 км в посл. час туман 1/1 30 м
[St Ci fib]
+10.3 +8.9 91 +9 +9 тепло 1018.0 1005.4
З 1-2
{3}
25 км 3/0
[Ci fib]
+9.7 +8.5 92 +9 +9 тепло 1017.7 1005.1
ЮЗ 1-1
{3}
20 км местами туман поземный 1/1 30 м
[St Ci fib]
+8.0 +7.1 94 +7 +7 тепло 1016.9 1004.2
З 2-2
{3}
20 км туман поземный 4/0
[Ci fib]
+7.7 +7.0 95 +5 +5 по сезону 1016.1 1003.4
ЮЗ 2-5
{5}
20 км туман поземный 4/0
[Ci fib]
+7.4 +6.7 95 +5 +5 по сезону 1015.9 1003.2
Местоположение метеостанции Франкфурт-на-Майне (Германия): широта 50.05 долгота 8.60 высота над уровнем моря 112 м.
В архиве по умолчанию представлена погода во Франкфурте-на-Майне за последнюю неделю. Архивные данные за месяц целиком и за предыдущие месяцы, начиная с января 2011 года, Вы можете получить, выбрав интересующий диапазон дат из раскрывающегося списка и нажав кнопку "Найти!".
*Определитесь, кто Вы:
Внимание! Время в таблицах - всемирное. Для получения местного времени необходимо прибавить поправку, которая равна 1 ч.
Смотрите также архив погоды в соседних городах и на ближайших метеорологических станциях:
Партнеры нашего сайта:      
Пояснения к столбцам:
  • Ветер - указаны скорость ветра в м/с - средняя за 10 мин, порывы в срок и между сроками (в фигурных скобках) и направление, откуда дует ветер: С - северный,
  • СВ - северо-восточный, В - восточный, ЮВ - юго-восточный, Ю - южный, ЮЗ - юго-западный, З - западный, СЗ - северо-западный.
  • Видимость - горизонтальная дальность видимости в метрах или километрах. При видимости от 1 до 10 км при отсутствии осадков обычно наблюдается дымка, при ухудшении видимости до 1 км и менее - туман. В сухую погоду видимость может ухудшаться дымом, пылью или мглою.
  • Явления - указаны атмосферные явления, наблюдавшиеся в срок или в последний час перед сроком; фигурными скобками обозначены явления, наблюдавшиеся между сроками (за 1-3 часа до срока); квадратными скобками обозначены град или гололедные отложения с указанием их диаметра в мм.
  • Облачность - указаны через наклонную черту общая и нижняя облачность в баллах и высота нижней границы облаков в метрах; квадратными скобками обозначены формы облаков: Ci - перистые, Cs - перисто-слоистые, Cc - перисто-кучевые, Ac - высококучевые, As - высокослоистые, Sc - слоисто-кучевые, Ns - слоисто-дождевые, Cu - кучевые, Cb - кучево-дождевые. Подробнее классификацию облаков см. в Атласе облаков (PDF).
  • T - Температура воздуха - температура, измеренная на высоте 2 м над землей.
  • Td - Температура точки росы - температура, при понижении до которой содержащийся в воздухе водяной пар достигнет насыщения.
  • f - Относительная влажность воздуха - влажноcть воздуха, измеренная на высоте 2 м над землей.
  • Te - Эффективная температура - температура, которую ощущает одетый по сезону человек в тени. Характеристика душности погоды. При расчете учитывается влияние влажности воздуха и скорости ветра на теплоощущения человека.
  • Tes - Эффективная температура на солнце - температура, которую ощущает человек, с поправкой на солнечный нагрев. Характеристика знойности погоды. Зависит от высоты солнца над горизонтом, облачности и скорости ветра. Ночью, в пасмурную погоду, а также при ветре 12 м/с и более поправка равна нулю.
  • P - Атмосферное давление - приведенное к уровню моря атмосферное давление.
  • Po - Атмосферное давление - измеренное на уровне метеостанции атмосферное давление.
  • Tmin - Минимальная температура - минимум температуры воздуха на высоте 2 м над землей.
  • Tmax - Максимальная температура - максимум температуры воздуха на высоте 2 м над землей.
  • R - Количество осадков - Количество выпавших осадков за период времени, мм. При наведении курсора мыши на число - период времени, за который выпало указанное количество осадков.
  • R24 - Количество осадков - Количество выпавших осадков за 24 часа, мм.
  • S - Снежный покров - Высота снежного покрова, см. При наведении курсора мыши на число - состояние снежного покрова и степень покрытия местности в баллах.